Orbital Elements at Epoch 2459200.5 (2020-Dec-17.0) TDB
Reference: JPL 23 (heliocentric ecliptic J2000)
Element | Value | Uncertainty (1-sigma) | Units |
e | .1511344626165345 | 3.4608e-08 | |
a | 2.283555944736513 | 6.4948e-09 | au |
q | 1.938431944173967 | 7.9821e-08 | au |
i | 3.349223428056074 | 4.5288e-06 | deg |
node | 356.3998429558298 | 6.1891e-05 | deg |
peri | 297.4074422271719 | 6.3413e-05 | deg |
M | 39.63392539966564 | 1.3971e-05 | deg |
tp | 2459061.734821886679 (2020-Jul-31.23482189) | 4.8853e-05 | TDB |
period | 1260.421813308884 3.45 | 5.3773e-06 1.472e-08 | d yr |
n | .2856186684479231 | 1.2185e-09 | deg/d |
Q | 2.628679945299059 | 7.4764e-09 | au |
|
| | Orbit Determination Parameters
Additional Information
|